Location: Fenile
(46.0500°N, 9.5500°E)
Time: 07:59:53
(UTC+00:00)

BREEZE-M DEB (TANK) - Pass Details

Date: 03 March 2021
Orbit: 308 x 15404 km, 49.5° (Epoch: 10 April)

Event Time Altitude Azimuth Distance (km) Brightness Sun altitude
Rises 19:43:41 0° 289° (WNW) 2,220 6.7 -26.9°
Reaches altitude 10° 19:45:02 10° 293° (WNW) 1,568 5.6 -27.1°
Enters shadow 19:47:19 55° 323° (NW) 768 3.2 -27.5°
